Вернуться в каталог

OPS 6432 DEB

АктивенLEO
NORAD 14146·DEBRIS·🇺🇸 United States

Запущен Jun 9, 1983 с Vandenberg Space Force Base

Loading…

Ближайшие Пролёты (ближайшие 24 часа)

TLE

УстаревшееSource: Space-Track

Эпоха: Oct 13, 1983, 22:43 UTC

1 14146U 83056  F 83286.94720240  .00001698 +00000-0 +99999-4 0  9996
2 14146 063.4377 007.8888 0066550 161.4444 198.9436 13.41573047016904

Отслеживайте OPS 6432 DEB в реальном времени с AllMySat

Download on the App Store